This is the latest recevied weather packets stored in our database for station/object SP6KBU-12. If no packets are shown the sender has not sent any weather packets the latest 10 day(s).
| Time | Temp. | Humidity | Pressure | Rain* | Wind** | Luminosity | Snow |
|---|---|---|---|---|---|---|---|
| 1777640173 | 21.11° C | 27% | 1028.5 hPa | - | - | - | - |
| 1777639273 | 21.67° C | 28% | 1028.7 hPa | - | - | - | - |
| 1777638373 | 21.11° C | 27% | 1028.9 hPa | - | - | - | - |
| 1777637473 | 21.11° C | 27% | 1028.9 hPa | - | - | - | - |
| 1777636572 | 20.56° C | 28% | 1029 hPa | - | - | - | - |
| 1777635672 | 20° C | 28% | 1029.1 hPa | - | - | - | - |
| 1777634772 | 20.56° C | 29% | 1029 hPa | - | - | - | - |
| 1777633871 | 20° C | 27% | 1029.2 hPa | - | - | - | - |
| 1777632971 | 20° C | 30% | 1029.4 hPa | - | - | - | - |
| 1777632071 | 20.56° C | 29% | 1029.5 hPa | - | - | - | - |
| 1777631171 | 20° C | 29% | 1029.4 hPa | - | - | - | - |
| 1777630271 | 20° C | 30% | 1029.6 hPa | - | - | - | - |
| 1777629370 | 19.44° C | 29% | 1029.6 hPa | - | - | - | - |
| 1777628470 | 18.33° C | 31% | 1029.7 hPa | - | - | - | - |
| 1777627570 | 18.33° C | 30% | 1029.8 hPa | - | - | - | - |
| 1777626671 | 17.78° C | 30% | 1029.9 hPa | - | - | - | - |
| 1777625770 | 17.78° C | 30% | 1029.8 hPa | - | - | - | - |
| 1777624870 | 17.78° C | 30% | 1029.9 hPa | - | - | - | - |
| 1777623970 | 17.22° C | 31% | 1029.9 hPa | - | - | - | - |
| 1777623070 | 16.67° C | 33% | 1030 hPa | - | - | - | - |
| 1777622170 | 16.67° C | 35% | 1029.8 hPa | - | - | - | - |
| 1777621270 | 15.56° C | 35% | 1029.9 hPa | - | - | - | - |
| 1777620370 | 15° C | 37% | 1030 hPa | - | - | - | - |
| 1777619469 | 14.44° C | 37% | 1030 hPa | - | - | - | - |
| 1777618570 | 13.89° C | 37% | 1029.9 hPa | - | - | - | - |
* Rain since midnight (hover to see other rain measurements)
** Current wind speed in m/s (hover to see current wind gust speed)